Flag for U.S.A. Weather past 2 weeks in Sioux Falls, South Dakota, U.S.A.

Now
82 °F

Sunny.


Feels Like: 82 °F
Forecast: 62 / 85 °F
Wind: 7 mph from Northwest

Location: Foss Field

Current Time: Jun 29, 2015 at 6:22:28 PM

Latest Report: Jun 29, 2015 at 5:56 PM


Visibility: 5 mi

Pressure: 29.88 "Hg

Humidity: 46%

Dew point: 59 °F

Location of Sioux FallsLocation

Historic Weather in Sioux Falls — Graph

°F

Sioux Falls temperature yesterday

Maximum temperature yesterday: 84 °F (at 2:56 PM)
Minimum temperature yesterday: 62 °F (at 4:56 AM)
Average temperature yesterday: 74 °F

Past Weeks' High & Low Weather Summary

 TemperatureHumidityPressure
High85 °F (Jun 27, 3:56 PM)97% (Jun 18, 4:56 AM)30.20 "Hg (Jun 18, 4:56 AM)
Low52 °F (Jun 18, 4:56 AM)37% (Jun 21, 1:56 PM)27.72 "Hg (Jun 22, 5:00 AM)
Average70 °F69%29.96 "Hg
* Reported Jun 14 4:56 PM — Jun 29 4:56 PM, Sioux Falls, Weather by CustomWeather, © 2015

Note: Actual official high and low records may vary slightly from our data, if they occured in-between our weather recording intervals... More about our weather records

Advertising

Sioux Falls weather history for previous 24 hours

 ConditionsComfort  
Time TempWeatherWind HumidityBarometerVisibility
4:56 PM
Mon, Jun 29
82 °FSunny.8 mph43%29.89 "Hg5 mi
3:56 PM82 °FSunny.14 mph43%29.90 "Hg5 mi
2:56 PM82 °FSunny.13 mph44%29.90 "Hg6 mi
1:56 PM81 °FScattered clouds.13 mph49%29.91 "Hg5 mi
12:56 PM81 °FOvercast.12 mph49%29.91 "Hg10 mi
11:56 AM81 °FOvercast.9 mph49%29.92 "Hg10 mi
10:56 AM80 °FOvercast.12 mph52%29.92 "Hg10 mi
9:56 AM77 °FOvercast.8 mph60%29.93 "Hg10 mi
8:56 AM72 °FOvercast.3 mph68%29.92 "Hg10 mi
7:56 AM68 °FOvercast.3 mph76%29.92 "Hg10 mi
6:56 AM63 °FSunny.No wind87%29.91 "Hg10 mi
5:56 AM63 °FClear.No wind87%29.90 "Hg10 mi
4:56 AM63 °FClear.5 mph84%29.89 "Hg10 mi
3:56 AM65 °FClear.5 mph81%29.89 "Hg10 mi
2:56 AM65 °FClear.3 mph81%29.89 "Hg10 mi
1:56 AM66 °FClear.No wind78%29.88 "Hg10 mi
12:56 AM67 °FClear.5 mph79%29.88 "Hg10 mi
11:56 PM
Sun, Jun 28
69 °FClear.7 mph73%29.87 "Hg10 mi
10:56 PM70 °FClear.6 mph71%29.88 "Hg10 mi
9:56 PM71 °FScattered clouds.6 mph68%29.88 "Hg10 mi
8:56 PM74 °FPassing clouds.5 mph62%29.86 "Hg10 mi
6:56 PM81 °FSunny.12 mph44%29.86 "Hg10 mi
Weather by CustomWeather, © 2015

See weather overviewHow to use our weather pages